Wind_Speed
22 15 14 12 7 7 12 13 13 7 11 5 12 14 12 8 6 6 8 9 12 12 7 16 10 14 15 20 18 17 15 11 9 10 10 11 11 11 13 14 12 8 8 12
19 16 7 8 7 10 11 9 7 7 10 8 8 9 8 10 9 6 5 2 2 5 1 7 12 11 13 19 20 17 15 17 13 7 12 12 8 10 12 13 14 12 8 8
15 13 6 4 6 5 4 9 9 11 12 10 4 6 6 9 7 3 4 5 6 8 7 2 3 12 13 15 20 19 17 17 21 13 12 15 14 12 11 10 10 12 12 10
9 8 4 3 2 3 7 6 4 9 11 8 8 3 10 10 7 4 4 7 8 10 9 5 10 15 8 12 18 22 25 26 28 18 16 14 11 11 11 13 13 14 14 12
8 7 5 6 4 4 6 5 7 9 14 13 3 2 5 10 9 5 6 6 9 13 11 4 11 16 14 10 14 22 29 32 31 27 22 17 14 14 16 15 16 16 16 13
9 10 12 6 4 6 6 7 8 9 12 3 7 3 6 7 7 5 8 10 9 8 10 10 6 6 6 8 12 22 23 27 37 30 24 19 15 16 17 17 18 18 17 17
8 9 10 13 13 11 9 6 3 4 5 4 7 3 7 10 11 9 7 9 11 10 11 16 11 3 7 10 15 21 20 22 31 29 36 22 20 20 18 18 21 20 18 18
2 4 6 3 7 6 2 7 5 4 2 5 4 3 7 10 12 10 3 2 11 9 12 14 13 6 6 9 11 15 12 17 31 35 23 24 21 18 14 16 19 21 21 20
2 1 6 5 6 4 3 3 3 2 1 2 3 4 2 6 8 8 3 2 10 6 10 10 9 9 9 8 12 12 4 13 12 21 30 19 22 18 15 17 19 19 21 23
2 3 6 8 8 5 3 2 0 2 2 2 4 6 6 2 5 6 1 8 5 5 7 7 8 9 10 8 9 9 7 8 8 19 13 15 18 19 18 18 19 18 20 25
12 7 2 2 4 9 8 6 2 3 1 4 1 6 3 5 5 6 6 2 1 2 4 6 7 9 9 6 7 8 5 1 4 7 10 20 19 16 20 18 16 16 18 20
15 7 2 11 11 9 7 6 2 1 3 4 3 7 6 9 5 6 7 3 2 3 5 5 7 11 11 5 5 5 2 3 7 6 6 7 15 19 17 16 17 15 16 18
12 8 6 5 7 9 3 4 5 2 3 8 4 6 9 12 11 9 11 5 4 5 5 6 9 11 14 12 8 5 3 3 2 7 8 11 14 16 16 15 15 15 16 17
6 5 7 6 3 3 2 5 9 10 11 12 15 20 12 9 9 11 14 7 3 6 7 7 10 13 15 14 12 7 6 8 10 9 9 11 11 12 13 15 13 15 17 17
2 2 0 1 4 9 13 14 13 12 12 8 7 8 7 10 12 13 14 9 4 9 6 8 11 14 16 16 14 11 8 8 10 10 9 10 13 14 15 16 13 16 18 17
2 3 4 7 8 12 10 9 5 6 7 7 5 5 6 8 13 13 13 5 5 10 9 12 12 11 12 15 15 12 11 11 10 12 13 13 15 15 14 15 16 17 21 19
5 4 7 16 16 12 10 8 5 5 5 6 5 7 7 8 9 12 10 4 8 9 11 10 10 8 13 17 13 12 13 15 16 16 16 16 18 20 21 18 19 19 21 23
15 17 17 11 8 3 6 6 3 4 7 7 4 3 3 7 7 7 10 6 7 9 13 17 16 15 16 19 17 16 19 19 18 17 18 20 19 20 19 26 23 24 25 21
20 18 16 8 15 5 7 9 8 6 7 9 6 5 7 8 10 9 10 16 16 18 19 20 20 20 22 21 23 25 27 27 26 23 23 23 24 24 23 23 25 31 32 31
14 14 20 13 6 8 8 12 9 8 9 9 8 8 9 9 12 14 15 16 19 19 20 22 24 25 24 24 27 30 31 31 30 29 27 27 28 27 29 29 26 28 29 32
8 9 21 22 12 8 11 13 12 11 10 8 7 9 8 9 12 14 14 17 20 22 23 24 28 29 30 32 32 29 26 27 30 30 30 31 31 31 30 32 32 29 28 26
10 6 8 15 13 9 12 15 15 13 13 10 7 7 8 10 13 18 22 25 23 22 25 29 31 31 34 35 33 32 31 32 33 34 34 35 34 34 34 35 35 33 31 28
7 7 5 8 9 9 10 15 15 14 14 14 12 12 13 15 17 18 19 21 23 25 29 32 33 34 32 26 28 30 31 35 34 34 32 31 31 29 28 28 34 36 34 29
11 10 9 11 11 9 9 10 13 15 15 15 16 14 15 16 17 19 23 27 31 33 33 33 32 31 29 29 32 34 32 31 32 31 31 30 30 32 32 29 26 28 30 31
16 14 11 13 14 14 13 13 14 14 12 13 14 16 18 22 26 29 33 30 26 26 27 29 30 32 33 35 33 31 32 33 35 36 36 37 35 33 35 35 29 25 24 24
24 26 24 23 19 17 15 13 11 11 13 16 19 22 26 29 30 28 25 25 26 28 31 33 35 37 36 35 36 37 39 40 38 40 40 40 40 39 37 36 33 27 22 22
Wind_Direction
217 238 207 213 235 302 320 319 315 17 4 314 266 265 278 278 268 324 295 269 280 296 253 237 277 277 246 229 227 221 210 215 244 257 229 237 240 252 236 243 242 244 225 223
225 207 175 189 251 293 303 298 328 7 357 352 294 292 283 270 298 309 345 4 218 297 283 226 253 273 261 234 219 209 216 218 225 246 238 229 237 243 235 231 231 232 235 234
195 150 170 300 310 316 291 308 316 323 336 336 273 284 262 258 248 328 355 7 349 341 344 276 224 252 276 247 237 226 228 223 219 214 224 230 244 242 237 237 232 246 244 252
216 203 237 308 286 286 291 331 327 328 334 331 287 261 249 224 258 283 326 338 352 346 338 312 230 235 237 224 234 237 234 236 229 211 213 214 231 238 231 221 226 233 236 247
201 198 237 240 250 264 261 320 328 321 317 320 356 210 236 241 247 317 340 340 358 3 13 345 236 238 246 262 258 251 253 243 244 217 222 221 212 225 232 228 233 233 235 242
204 224 246 234 229 278 254 291 306 298 320 4 2 345 245 256 285 309 352 360 346 14 9 355 344 229 247 273 280 266 276 266 248 206 218 215 216 220 228 232 237 237 239 240
246 231 253 256 251 249 250 266 331 360 353 235 344 340 353 340 343 332 345 26 352 346 360 355 346 300 284 296 298 292 283 276 256 200 209 203 227 227 227 234 233 231 232 235
244 141 8 245 238 241 205 228 195 198 226 279 315 312 340 333 336 351 324 355 356 354 355 347 351 350 316 322 328 309 303 300 255 231 204 208 223 237 241 245 242 232 228 233
206 331 351 52 93 180 196 160 249 198 227 300 287 305 22 25 3 354 252 291 353 351 4 348 353 355 352 347 4 7 43 53 77 181 194 212 220 230 242 242 244 239 232 234
232 339 32 99 103 107 210 267 160 209 132 281 285 284 287 349 311 336 274 296 336 356 12 358 353 12 9 4 7 31 81 100 130 173 201 219 230 236 227 233 239 244 240 236
224 255 289 148 147 133 122 123 148 137 137 158 253 278 298 240 256 301 3 84 86 347 357 19 1 1 14 21 6 359 13 122 41 56 234 233 241 233 229 235 244 248 245 237
211 213 178 124 121 117 110 103 94 258 217 222 228 267 331 291 266 267 292 295 278 332 13 30 10 357 358 359 5 25 44 275 266 291 193 214 237 245 240 244 244 252 254 245
173 198 200 204 229 221 207 25 15 12 281 258 207 258 295 301 263 269 265 268 260 293 348 9 22 18 2 353 340 346 342 338 218 257 253 221 227 235 245 243 249 251 256 253
196 232 245 254 194 220 281 339 326 306 279 277 276 289 283 280 246 254 258 269 294 301 299 332 0 359 8 360 344 314 302 297 291 288 273 273 274 260 265 249 243 259 260 260
227 176 213 242 268 295 296 301 298 292 272 256 315 317 291 258 221 240 251 256 275 314 294 326 329 329 335 340 343 334 314 304 295 297 297 283 274 276 266 264 251 256 262 262
209 182 241 262 275 291 286 284 257 238 283 285 280 297 299 243 228 247 245 243 306 317 303 311 323 330 333 335 323 315 316 317 312 299 287 276 276 278 278 279 271 266 269 262
253 235 255 270 276 257 272 218 255 275 282 279 263 298 289 249 241 253 257 235 315 309 300 307 308 320 337 332 318 306 300 300 299 301 303 299 292 287 280 283 275 271 269 264
264 273 273 254 226 232 242 225 267 273 262 254 227 239 238 259 267 249 206 250 289 306 302 300 302 310 313 310 306 297 299 297 292 294 295 289 291 293 291 274 286 288 276 274
270 251 242 226 210 216 212 248 273 248 241 255 246 207 230 257 268 263 277 286 298 307 302 301 294 301 300 303 301 302 300 297 292 287 287 289 286 283 280 279 285 279 280 272
237 248 229 220 205 205 246 234 244 225 244 250 244 265 224 249 250 270 288 289 300 302 295 292 291 290 290 292 293 296 295 296 297 297 293 286 283 282 282 282 280 280 281 286
265 262 230 224 231 233 232 223 228 220 278 290 276 256 250 253 263 276 282 296 303 301 299 293 296 297 297 297 294 291 291 289 291 297 296 293 287 283 280 283 286 289 293 291
258 239 226 231 228 231 235 235 234 263 271 288 293 288 278 273 281 290 299 304 303 302 300 303 303 302 304 301 297 297 299 301 300 299 301 301 299 292 284 283 286 287 290 296
242 254 247 245 247 242 224 231 244 261 273 290 300 302 297 296 294 289 286 287 289 289 289 291 290 292 297 297 296 293 298 298 295 294 294 295 298 300 294 285 282 283 284 289
254 247 260 264 253 256 249 258 274 284 296 306 305 294 282 280 282 283 286 289 290 291 293 294 297 298 295 292 294 293 295 293 295 295 293 291 292 294 296 293 285 284 282 283
257 258 263 264 265 273 273 278 288 296 290 273 269 276 281 285 288 289 294 298 297 295 295 294 295 294 293 292 291 289 290 290 291 292 292 292 292 290 290 290 288 282 281 281
267 265 264 265 271 272 272 271 260 244 254 266 277 285 292 296 298 300 300 297 294 291 290 290 291 293 294 294 294 293 292 292 293 292 292 290 291 291 289 286 283 280 272 268
Height
3184 3185 3185 3189 3190 3189 3188 3187 3185 3185 3183 3181 3181 3180 3179 3178 3176 3175 3173 3172 3171 3170 3170 3171 3173 3174 3175 3178 3181 3182 3183 3184 3186 3187 3188 3189 3190 3192 3194 3194 3196 3197 3198 3199
3185 3184 3187 3188 3188 3188 3187 3185 3184 3184 3182 3182 3179 3178 3177 3175 3175 3174 3172 3171 3170 3169 3167 3167 3168 3171 3172 3175 3178 3180 3182 3182 3182 3184 3185 3186 3187 3189 3190 3192 3193 3195 3197 3198
3182 3184 3185 3186 3185 3185 3184 3183 3183 3183 3182 3180 3179 3177 3175 3173 3172 3173 3171 3170 3169 3167 3167 3166 3165 3167 3169 3172 3175 3177 3178 3178 3179 3180 3181 3183 3184 3186 3188 3190 3191 3193 3194 3196
3181 3182 3183 3183 3183 3183 3183 3183 3182 3181 3181 3180 3179 3177 3173 3172 3172 3172 3171 3170 3169 3167 3165 3165 3164 3166 3168 3170 3170 3171 3172 3173 3174 3177 3178 3179 3182 3183 3185 3187 3188 3189 3190 3192
3180 3181 3181 3181 3182 3182 3183 3182 3181 3180 3178 3177 3176 3177 3172 3171 3171 3172 3171 3170 3168 3167 3164 3165 3164 3164 3165 3166 3167 3168 3166 3165 3163 3170 3173 3175 3176 3179 3181 3182 3184 3186 3188 3189
3178 3179 3179 3179 3180 3180 3180 3181 3180 3179 3177 3176 3176 3176 3172 3171 3171 3171 3169 3169 3167 3166 3164 3163 3161 3161 3162 3163 3163 3162 3158 3158 3153 3155 3165 3170 3173 3174 3176 3178 3181 3183 3184 3186
3176 3176 3177 3176 3177 3178 3179 3179 3180 3181 3180 3179 3176 3175 3173 3171 3171 3170 3168 3167 3166 3165 3162 3160 3160 3159 3159 3158 3157 3155 3151 3148 3145 3134 3156 3161 3168 3170 3172 3174 3177 3178 3180 3182
3174 3176 3175 3173 3174 3176 3176 3177 3179 3183 3183 3178 3176 3175 3174 3171 3170 3169 3166 3165 3165 3164 3161 3159 3159 3158 3157 3155 3154 3149 3144 3141 3135 3142 3151 3158 3164 3170 3170 3172 3174 3174 3175 3178
3173 3174 3173 3171 3171 3175 3175 3176 3178 3177 3179 3177 3176 3175 3173 3172 3170 3169 3166 3164 3164 3163 3160 3159 3158 3157 3156 3154 3151 3147 3146 3141 3131 3137 3149 3154 3161 3165 3167 3168 3170 3171 3171 3173
3174 3174 3173 3172 3172 3174 3175 3177 3177 3176 3180 3179 3175 3173 3171 3170 3170 3169 3166 3165 3164 3165 3164 3162 3160 3158 3156 3154 3153 3150 3148 3148 3149 3151 3152 3156 3160 3161 3163 3164 3167 3167 3167 3169
3171 3175 3175 3173 3173 3173 3175 3175 3176 3176 3176 3176 3178 3172 3170 3169 3169 3168 3168 3166 3166 3166 3165 3164 3161 3159 3158 3156 3155 3154 3152 3151 3151 3151 3153 3156 3158 3160 3162 3163 3163 3164 3164 3165
3169 3172 3173 3173 3174 3174 3174 3174 3174 3174 3176 3174 3174 3171 3169 3168 3169 3169 3167 3166 3166 3165 3165 3165 3163 3161 3159 3158 3157 3155 3154 3153 3153 3155 3157 3159 3158 3159 3160 3160 3161 3161 3162 3163
3168 3170 3171 3172 3174 3173 3173 3174 3174 3174 3173 3172 3171 3169 3167 3166 3166 3167 3166 3166 3166 3165 3166 3166 3165 3164 3161 3159 3157 3156 3155 3154 3153 3153 3155 3157 3158 3157 3157 3158 3159 3156 3159 3159
3167 3167 3168 3169 3170 3171 3171 3172 3172 3172 3170 3168 3167 3164 3164 3163 3164 3165 3165 3165 3165 3166 3166 3166 3165 3164 3163 3161 3159 3158 3156 3153 3153 3152 3153 3153 3153 3155 3155 3154 3154 3155 3156 3156
3166 3166 3167 3168 3169 3169 3169 3169 3168 3167 3166 3165 3164 3161 3160 3160 3161 3163 3163 3164 3165 3165 3165 3165 3164 3163 3161 3160 3158 3157 3156 3153 3153 3151 3151 3151 3149 3149 3150 3149 3149 3151 3152 3152
3164 3164 3166 3168 3168 3168 3167 3166 3165 3164 3164 3163 3162 3160 3159 3159 3160 3161 3162 3163 3164 3164 3164 3163 3163 3161 3159 3158 3157 3155 3153 3152 3151 3148 3147 3148 3147 3147 3147 3146 3145 3144 3146 3146
3163 3163 3164 3164 3165 3164 3165 3162 3162 3162 3162 3161 3161 3160 3158 3158 3160 3161 3162 3162 3162 3162 3161 3160 3160 3159 3156 3154 3154 3153 3151 3150 3148 3147 3145 3144 3144 3144 3142 3142 3141 3140 3141 3140
3160 3160 3161 3161 3162 3163 3159 3159 3160 3160 3160 3160 3159 3159 3158 3159 3160 3160 3161 3162 3162 3161 3160 3158 3156 3155 3154 3154 3152 3151 3149 3147 3145 3144 3142 3141 3140 3138 3137 3139 3139 3137 3139 3138
3154 3155 3156 3157 3157 3157 3156 3156 3157 3158 3159 3159 3158 3159 3159 3158 3158 3159 3159 3159 3158 3158 3157 3156 3155 3154 3152 3150 3148 3146 3145 3143 3140 3139 3138 3136 3134 3133 3133 3133 3132 3133 3132 3132
3149 3149 3151 3151 3152 3152 3151 3152 3154 3155 3156 3156 3157 3158 3158 3158 3157 3157 3156 3156 3156 3154 3153 3152 3150 3149 3147 3146 3144 3141 3138 3136 3134 3132 3130 3129 3128 3128 3127 3126 3127 3127 3126 3125
3145 3144 3144 3145 3147 3148 3147 3148 3150 3153 3156 3153 3154 3155 3155 3155 3155 3155 3154 3152 3151 3150 3148 3147 3145 3143 3140 3138 3136 3134 3133 3131 3127 3124 3122 3121 3120 3121 3121 3119 3119 3120 3119 3118
3143 3142 3141 3142 3143 3144 3145 3145 3148 3148 3147 3149 3150 3151 3151 3152 3151 3150 3149 3147 3145 3144 3142 3140 3138 3135 3133 3130 3127 3126 3125 3123 3121 3118 3116 3113 3111 3111 3113 3112 3112 3111 3112 3110
3140 3139 3139 3141 3139 3139 3140 3142 3143 3142 3143 3144 3145 3145 3145 3145 3144 3143 3141 3140 3139 3137 3135 3133 3131 3129 3126 3123 3120 3118 3117 3114 3112 3111 3109 3106 3103 3101 3102 3104 3102 3102 3103 3103
3136 3136 3136 3138 3137 3137 3138 3140 3140 3140 3139 3139 3139 3139 3139 3139 3138 3137 3136 3134 3132 3130 3127 3124 3121 3120 3118 3117 3114 3111 3109 3106 3103 3102 3101 3100 3098 3095 3092 3093 3094 3093 3093 3094
3133 3133 3133 3134 3134 3135 3136 3136 3136 3136 3136 3136 3136 3136 3135 3135 3133 3131 3128 3124 3122 3120 3118 3116 3114 3112 3110 3108 3106 3104 3101 3098 3096 3093 3091 3089 3088 3087 3084 3082 3084 3085 3085 3084
3126 3127 3128 3129 3131 3131 3132 3132 3132 3133 3133 3133 3132 3131 3130 3127 3124 3121 3119 3117 3116 3114 3111 3109 3106 3103 3101 3098 3096 3095 3093 3089 3087 3084 3081 3079 3077 3076 3074 3071 3072 3075 3076 3076